GW4091 Weather Reports


time (UTC)temp
C
wind
direction
speed
KPH
gust
KPH
rain 1hr
cm
rain 24hr
cm
rain mn
cm
humidity
%
barometer
mb
20260504000028 17 153 1.6 6.4 0.00 0.03 0.03 61 1017.8
20260503234517 17 171 4.8 8.0 0.00 0.03 0.03 60 1017.7
20260503233027 18 170 1.6 6.4 0.00 0.03 0.03 58 1017.6
20260503231504 18 146 3.2 12.9 0.00 0.03 0.03 57 1017.5
20260503230004 18 167 3.2 11.3 0.00 0.03 0.03 57 1017.5
20260503224527 18 165 6.4 11.3 0.00 0.03 0.03 56 1017.5
20260503223017 19 135 4.8 12.9 0.00 0.03 0.03 57 1017.6
20260503221532 19 132 4.8 12.9 0.00 0.03 0.03 55 1017.5
20260503220030 20 153 8.0 14.5 0.00 0.03 0.03 55 1017.2
20260503214529 20 153 3.2 11.3 0.00 0.03 0.03 56 1017.3
20260503213032 20 171 6.4 14.5 0.00 0.03 0.03 55 1017.3
20260503211516 20 184 6.4 14.5 0.00 0.03 0.03 53 1017.3
20260503210025 20 172 3.2 14.5 0.00 0.03 0.03 55 1017.5
20260503204507 20 166 6.4 17.7 0.00 0.03 0.03 54 1017.6
20260503203028 20 193 4.8 14.5 0.00 0.03 0.03 54 1017.5
20260503201530 20 169 6.4 19.3 0.00 0.03 0.03 52 1017.8
20260503200034 21 336 3.2 8.0 0.00 0.03 0.03 42 1017.8
20260503194527 21 205 3.2 12.9 0.00 0.03 0.03 42 1018.0
20260503193033 21 178 0.0 4.8 0.00 0.03 0.03 41 1018.3
20260503191516 21 324 3.2 8.0 0.00 0.03 0.03 41 1018.6
20260503190020 21 263 3.2 9.7 0.00 0.03 0.03 42 1018.9
20260503184538 20 268 3.2 11.3 0.00 0.03 0.03 41 1019.1
20260503183030 20 176 3.2 11.3 0.00 0.03 0.03 41 1019.3
20260503181527 20 120 1.6 6.4 0.00 0.03 0.03 44 1019.5
20260503180033 20 26 4.8 17.7 0.03 0.03 0.03 45 1019.6
20260503174543 20 36 6.4 12.9 0.03 0.03 0.03 43 1019.6
20260503173039 19 82 3.2 6.4 0.03 0.03 0.03 45 1019.6
20260503171529 19 294 1.6 12.9 0.03 0.03 0.03 47 1019.8
20260503053019 11 317 0.0 1.6 0.00 0.03 0.00 93 1016.5
20260503051536 11 330 0.0 3.2 0.00 0.03 0.00 1016.2
20260503050026 11 330 0.0 3.2 0.00 0.03 0.00 1016.2
20260503040029 11 312 0.0 4.8 0.00 0.03 0.00 93 1015.6
20260503034529 12 346 1.6 6.4 0.00 0.03 0.03 93 1015.6
20260503033038 12 332 3.2 6.4 0.00 0.03 0.03 93 1015.3
20260503030045 12 349 0.0 3.2 0.00 0.03 0.03 93 1015.0
20260503024534 12 342 1.6 4.8 0.00 0.03 0.03 92 1014.7
20260503023030 12 9 0.0 3.2 0.00 0.03 0.03 92 1014.5
20260503021525 12 292 1.6 8.0 0.00 0.03 0.03 92 1014.4
20260503020024 12 318 1.6 4.8 0.00 0.03 0.03 92 1014.2
20260503014530 12 298 1.6 6.4 0.00 0.03 0.03 92 1013.9
20260503013007 12 33 1.6 4.8 0.00 0.03 0.03 92 1013.7
20260503011509 12 352 1.6 4.8 0.00 0.03 0.03 92 1013.5
20260503010010 13 352 3.2 6.4 0.00 0.03 0.03 92 1013.6
20260503004504 13 304 1.6 9.7 0.00 0.03 0.03 92 1013.5
20260503003008 13 9 1.6 8.0 0.00 0.03 0.03 92 1013.2
20260503001511 13 37 3.2 4.8 0.00 0.03 0.03 92 1012.9